Regional Weather Roundup
Issued by NWS Cleveland, OH

Home | Current Version | Previous Version | Text Only | Print | Product List | Glossary Off
Versions: 1 2 3 4 5 6 7 8 9 10 11 12 13 14 15 16 17 18 19 20 21 22 23 24 25 26 27 28 29 30 31 32 33 34 35 36 37 38 39 40 41 42 43 44 45 46 47 48 49 50

000
ASUS41 KCLE 020410
RWRCLE
OHIO REGIONAL WEATHER ROUNDUP
NATIONAL WEATHER SERVICE WILMINGTON, OH
1200 AM EDT SUN AUG 02 2015

NOTE: "FAIR" INDICATES FEW OR NO CLOUDS BELOW 12,000 FEET WITH NO
SIGNIFICANT WEATHER AND/OR OBSTRUCTIONS TO VISIBILITY.

OHZ001>008-015>018-024>027-034-035-043-044-020500-
   NORTHWEST OHIO

CITY           SKY/WX    TMP DP  RH WIND       PRES   REMARKS
DEFIANCE       MOCLDY    71  58  63 SW8       29.92F
FINDLAY        CLEAR     65  58  78 S5        29.93S
TOLEDO EXPRESS MOCLDY    67  58  72 SW3       29.91F
TOLEDO EXEC    MOCLDY    70  56  61 CALM      29.92F
LIMA           PTCLDY    70  57  63 SW7       29.96S
$$

OHZ009>014-019>023-028>033-038-089-020500-
   NORTHEAST OHIO

CITY           SKY/WX    TMP DP  RH WIND       PRES   REMARKS
CLE-HOPKINS    CLEAR     66  54  65 SW6       29.94S
CLE-LAKEFRONT  PTCLDY    74  55  51 SW10      29.90S
CUY CO. ARPT   NOT AVBL
LORAIN-ELYRIA  CLEAR     64  54  69 SW6       29.93S
ASHTABULA      CLEAR     65  55  70 SW5       29.92S
AKRON-CANTON   PTCLDY    69  55  60 W6        29.95S
WOOSTER        CLEAR     59  56  89 CALM      29.96S
MANSFIELD      MOCLDY    67  55  65 SW6       29.96F
YOUNGSTOWN     PTCLDY    65  55  70 S6        29.93F
$$

OHZ042-051>053-060>062-070>072-077>081-020500-
  SOUTHWEST OHIO

CITY           SKY/WX    TMP DP  RH WIND       PRES   REMARKS
CINC-COVINGTON PTCLDY    70  58  65 W5        30.00S
CINC-LUNKEN    CLEAR     65  62  90 CALM      29.99S
HAMILTON       CLEAR     64  62  93 CALM      29.99F
DAYTON         PTCLDY    67  59  75 W7        29.99F
WRIGHT-PAT AFB PTCLDY    68  59  74 SW1       29.98S
DAYTON GENERAL PTCLDY    69  58  67 CALM      29.98F
WILMINGTON     PTCLDY    65  58  78 SW3       29.99F
$$

OHZ036-037-039>041-045>050-054>059-063>069-073>076-082>088-020500-
  CENTRAL AND SOUTHEAST OHIO

CITY           SKY/WX    TMP DP  RH WIND       PRES   REMARKS
COLUMBUS       MOCLDY    72  56  57 CALM      29.96S
OSU AIRPORT    PTCLDY    68  57  68 W5        29.97S
BOLTON FIELD   PTCLDY    65  60  82 SW3       29.98S
RICKENBACK AFB MOCLDY    66  59  79 CALM      29.96F
NEWARK         CLEAR     65  59  81 CALM      29.96F
MARION         CLEAR     70  56  61 SW6       29.96S
LANCASTER      PTCLDY    61  58  90 SE3       29.98S
ZANESVILLE     CLEAR     66  57  72 W3        29.97S
NEW PHILLY     PTCLDY    60  58  92 SE3       29.96S
$$


USA.gov is the U.S. government's official web portal to all federal, state and local government web resources and services.